Bar Harbor, ME

7:14 PM EDT on October 22, 2019 (GMT -0400)
Hancock County-Bar Harbor

Weather History for KBHB - August, 2019

Change the Weather History Date:

Friday, August 2, 2019

  Actual Average Record
Temperature  
Mean Temperature 67 °F -  
Max Temperature 80 °F 80 °F 101 °F (1975)
Min Temperature 54 °F 57 °F 47 °F (1961)
Cooling Degree Days 2    
Growing Degree Days 17 (Base 50)    
Moisture  
Dew Point 56 °F    
Average Humidity 66    
Maximum Humidity 93    
Minimum Humidity 40    
Precipitation  
Precipitation 0.00 in - - ()
Sea Level Pressure  
Sea Level Pressure 30.08 in    
Wind  
Wind Speed 4 mph (SSW)    
Max Wind Speed 15 mph    
Max Gust Speed 20 mph    
Visibility 9 miles    
Events      
Averages and records for this station are not official NWS values.
T = Trace of Precipitation, MM = Missing Value Source: NWS Daily Summary

Daily Weather History Graph

Daily Weather History Graph

Search for Another Location

Airport or City:

Astronomy

Aug. 02, 2019 Rise Set
Actual Time 5:21 AM EDT 7:57 PM EDT
Civil Twilight 4:47 AM EDT 8:30 PM EDT
Nautical Twilight 4:06 AM EDT 9:12 PM EDT
Astronomical Twilight 3:18 AM EDT 9:59 PM EDT
Moon 6:57 AM EDT (8/2) 9:20 PM EDT (8/2)
Length of Visible Light 15h 42m
Length of Day
14h 36m
Waxing Crescent, 4% of the Moon is Illuminated
Aug 2
Waxing Crescent
Aug 7
First Quarter
Aug 15
Full
Aug 23
Last Quarter
Aug 30
New

Hourly Weather History & Observations

Time (EDT) Temp. Heat Index Dew Point Humidity Pressure Visibility Wind Dir Wind Speed Gust Speed Precip Events Conditions
12:56 AM 62.1 °F - 54.0 °F 75% 30.08 in 10.0 mi Calm Calm - N/A   Clear
1:56 AM 57.0 °F - 53.1 °F 87% 30.09 in 10.0 mi Calm Calm - N/A   Clear
2:56 AM 57.0 °F - 53.1 °F 87% 30.08 in 10.0 mi Calm Calm - N/A   Clear
3:56 AM 55.9 °F - 52.0 °F 87% 30.09 in 10.0 mi West 3.5 mph - N/A   Clear
4:56 AM 54.0 °F - 52.0 °F 93% 30.10 in 10.0 mi Calm Calm - N/A   Clear
5:56 AM 55.0 °F - 53.1 °F 93% 30.11 in 10.0 mi Calm Calm - N/A   Clear
6:56 AM 61.0 °F - 57.0 °F 87% 30.12 in 10.0 mi Calm Calm - N/A   Clear
7:56 AM 66.0 °F - 59.0 °F 78% 30.13 in 10.0 mi Calm Calm - N/A   Clear
8:56 AM 71.1 °F - 60.1 °F 68% 30.12 in 10.0 mi East 3.5 mph - N/A   Clear
9:56 AM 75.9 °F - 57.0 °F 52% 30.11 in 10.0 mi Variable 3.5 mph - N/A   Clear
10:56 AM 77.0 °F - 57.0 °F 50% 30.11 in 10.0 mi South 6.9 mph - N/A   Clear
11:56 AM 79.0 °F - 55.9 °F 45% 30.10 in 10.0 mi SSW 9.2 mph - N/A   Clear
12:56 PM 80.1 °F 80.2 °F 55.9 °F 43% 30.08 in 10.0 mi South 15.0 mph - N/A   Clear
1:56 PM 80.1 °F 80.0 °F 54.0 °F 40% 30.06 in 10.0 mi South 15.0 mph - N/A   Clear
2:56 PM 80.1 °F 80.2 °F 55.9 °F 43% 30.06 in 10.0 mi SSW 13.8 mph - N/A   Clear
3:56 PM 80.1 °F 80.4 °F 57.0 °F 45% 30.05 in 10.0 mi SSW 11.5 mph - N/A   Clear
4:56 PM 77.0 °F - 57.9 °F 52% 30.04 in 10.0 mi SSW 12.7 mph 19.6 mph N/A   Clear
5:56 PM 75.9 °F - 57.9 °F 54% 30.05 in 10.0 mi SSW 9.2 mph - N/A   Clear
6:56 PM 73.0 °F - 57.9 °F 59% 30.05 in 7.0 mi SSW 9.2 mph - N/A   Clear
7:27 PM 71.6 °F - 57.2 °F 60% 30.05 in 1.0 mi SSW 8.1 mph - N/A   Haze
7:37 PM 69.8 °F - 57.2 °F 64% 30.05 in 3.0 mi SSW 8.1 mph - N/A   Haze
7:56 PM 68.0 °F - 57.9 °F 70% 30.06 in 10.0 mi SSW 9.2 mph - N/A   Clear
8:56 PM 66.9 °F - 57.0 °F 70% 30.07 in 10.0 mi SSW 6.9 mph - N/A   Clear
9:56 PM 66.9 °F - 57.0 °F 70% 30.07 in 10.0 mi SW 4.6 mph - N/A   Clear
10:56 PM 66.0 °F - 55.9 °F 70% 30.07 in 10.0 mi SW 4.6 mph - N/A   Clear
11:56 PM 66.0 °F - 55.0 °F 68% 30.06 in 10.0 mi SSW 4.6 mph - N/A   Clear